EDW398E LSZH-LICC

Flight info

Callsign EDW398E
Flight time 1h 42m
Altitude 34000
Route VEBIT T53 GERSA DCT SOSON DCT ODINA DCT OSMOX/N0452F350 DCT PEVIR DCT RCA/N0398F190 Q58 PIMOR
Aircraft A320/M-SDE3FGHIRWY/LB1

Departure

Time 2026-05-05 14:15
Airport Zürich Airport (LSZH)

Arrival

Time 2026-05-05 15:58
Airport Catania-Fontanarossa Airport (LICC)
Time Latitude Longitude Altitude Speed Heading
2026-05-05 13:42 47.46042 8.55737 1404 ft 0 kts
2026-05-05 14:09 47.46037 8.55737 1424 ft 3 kts
2026-05-05 14:09 47.46010 8.55732 1401 ft 4 kts
2026-05-05 14:09 47.45984 8.55726 1404 ft 4 kts 12°
2026-05-05 14:10 47.45963 8.55718 1402 ft 4 kts 46°
2026-05-05 14:10 47.45954 8.55685 1397 ft 4 kts 88°
2026-05-05 14:10 47.45955 8.55647 1397 ft 2 kts 96°
2026-05-05 14:10 47.45955 8.55643 1397 ft 2 kts 96°
2026-05-05 14:12 47.45954 8.55660 1397 ft 5 kts 96°
2026-05-05 14:12 47.45948 8.55747 1406 ft 11 kts 96°
2026-05-05 14:13 47.45937 8.55880 1403 ft 15 kts 103°
2026-05-05 14:13 47.45839 8.56022 1401 ft 19 kts 95°
2026-05-05 14:13 47.45830 8.56154 1407 ft 21 kts 96°
2026-05-05 14:13 47.45773 8.56287 1402 ft 10 kts 173°
2026-05-05 14:14 47.45721 8.56273 1398 ft 14 kts 212°
2026-05-05 14:14 47.45723 8.56114 1405 ft 18 kts 279°
2026-05-05 14:14 47.45740 8.55890 1399 ft 31 kts 274°
2026-05-05 14:14 47.45777 8.55337 1403 ft 87 kts 276°
2026-05-05 14:15 47.45896 8.53601 1412 ft 161 kts 276°
2026-05-05 14:15 47.45973 8.52530 1861 ft 153 kts 274°
2026-05-05 14:15 47.46083 8.50968 2590 ft 153 kts 275°
2026-05-05 14:15 47.46199 8.49359 2953 ft 166 kts 275°
2026-05-05 14:16 47.46082 8.47576 3165 ft 188 kts 240°
2026-05-05 14:16 47.45097 8.46167 3436 ft 211 kts 217°
2026-05-05 14:16 47.43787 8.44953 3770 ft 236 kts 199°
2026-05-05 14:16 47.42073 8.44858 4202 ft 260 kts 172°
2026-05-05 14:17 47.40264 8.45328 4961 ft 266 kts 172°
2026-05-05 14:17 47.38437 8.45835 5818 ft 268 kts 171°
2026-05-05 14:17 47.36597 8.46338 6686 ft 270 kts 172°
2026-05-05 14:17 47.34746 8.46831 7521 ft 271 kts 173°
2026-05-05 14:18 47.32875 8.47316 8356 ft 274 kts 173°
2026-05-05 14:18 47.30989 8.47794 9195 ft 276 kts 174°
2026-05-05 14:18 47.29080 8.48271 9983 ft 280 kts 174°
2026-05-05 14:18 47.27119 8.48752 10231 ft 301 kts 173°
2026-05-05 14:19 47.24974 8.49276 10402 ft 324 kts 172°
2026-05-05 14:19 47.22686 8.49838 10730 ft 339 kts 172°
2026-05-05 14:19 47.20339 8.50417 11344 ft 345 kts 172°
2026-05-05 14:19 47.17924 8.51016 12021 ft 348 kts 173°
2026-05-05 14:20 47.15526 8.51582 12717 ft 352 kts 174°
2026-05-05 14:20 47.13119 8.52016 13416 ft 355 kts 176°
2026-05-05 14:20 47.10648 8.52371 14039 ft 358 kts 177°
2026-05-05 14:20 47.08159 8.52689 14654 ft 361 kts 178°
2026-05-05 14:21 47.05651 8.53005 15232 ft 364 kts 177°
2026-05-05 14:21 47.03115 8.53337 15740 ft 368 kts 177°
2026-05-05 14:21 47.00546 8.53690 16294 ft 371 kts 177°
2026-05-05 14:21 46.97972 8.54058 16974 ft 372 kts 176°
2026-05-05 14:22 46.95389 8.54435 17599 ft 374 kts 177°
2026-05-05 14:22 46.92789 8.54814 18179 ft 376 kts 176°
2026-05-05 14:22 46.90172 8.55195 18683 ft 379 kts 176°
2026-05-05 14:22 46.87538 8.55576 19168 ft 381 kts 176°
2026-05-05 14:23 46.84890 8.55956 19666 ft 383 kts 176°
2026-05-05 14:23 46.82241 8.56335 20169 ft 385 kts 177°
2026-05-05 14:23 46.79559 8.56719 20650 ft 387 kts 176°
2026-05-05 14:23 46.76872 8.57099 21075 ft 390 kts 177°
2026-05-05 14:24 46.74163 8.57478 21589 ft 392 kts 177°
2026-05-05 14:24 46.71439 8.57862 22083 ft 395 kts 177°
2026-05-05 14:24 46.68696 8.58255 22536 ft 397 kts 176°
2026-05-05 14:24 46.65940 8.58653 23000 ft 400 kts 177°
2026-05-05 14:25 46.63167 8.59051 23459 ft 401 kts 177°
2026-05-05 14:25 46.60388 8.59449 23848 ft 402 kts 177°
2026-05-05 14:25 46.57595 8.59849 24212 ft 404 kts 178°
2026-05-05 14:25 46.54793 8.60250 24553 ft 406 kts 178°
2026-05-05 14:26 46.51977 8.60648 24908 ft 407 kts 178°
2026-05-05 14:26 46.49149 8.61044 25207 ft 409 kts 178°
2026-05-05 14:26 46.46313 8.61443 25521 ft 410 kts 178°
2026-05-05 14:26 46.43459 8.61846 25804 ft 412 kts 178°
2026-05-05 14:27 46.40602 8.62249 26146 ft 414 kts 178°
2026-05-05 14:27 46.37723 8.62656 26445 ft 415 kts 178°
2026-05-05 14:27 46.34843 8.63060 26740 ft 417 kts 179°
2026-05-05 14:27 46.31947 8.63466 27035 ft 418 kts 179°
2026-05-05 14:28 46.29046 8.63874 27328 ft 421 kts 179°
2026-05-05 14:28 46.26131 8.64287 27623 ft 421 kts 179°
2026-05-05 14:28 46.23204 8.64701 27852 ft 423 kts 180°
2026-05-05 14:28 46.20275 8.65112 28156 ft 424 kts 180°
2026-05-05 14:29 46.17335 8.65522 28428 ft 425 kts 180°
2026-05-05 14:29 46.14394 8.65961 28661 ft 427 kts 177°
2026-05-05 14:29 46.11510 8.66907 28857 ft 436 kts 168°
2026-05-05 14:29 46.08644 8.68646 29063 ft 446 kts 158°
2026-05-05 14:30 46.06036 8.71054 29231 ft 456 kts 151°
2026-05-05 14:30 46.03466 8.73733 29427 ft 457 kts 151°
2026-05-05 14:30 46.00879 8.76425 29555 ft 460 kts 152°
2026-05-05 14:30 45.98285 8.79121 29738 ft 462 kts 152°
2026-05-05 14:31 45.95675 8.81832 29886 ft 463 kts 152°
2026-05-05 14:31 45.93060 8.84538 30143 ft 462 kts 152°
2026-05-05 14:31 45.90450 8.87232 30371 ft 461 kts 152°
2026-05-05 14:31 45.87851 8.89914 30576 ft 461 kts 152°
2026-05-05 14:32 45.85248 8.92600 30808 ft 460 kts 152°
2026-05-05 14:32 45.82656 8.95268 31042 ft 459 kts 152°
2026-05-05 14:32 45.80065 8.97928 31287 ft 457 kts 152°
2026-05-05 14:32 45.77480 9.00579 31540 ft 456 kts 152°
2026-05-05 14:33 45.74902 9.03225 31767 ft 455 kts 152°
2026-05-05 14:33 45.72329 9.05865 31941 ft 454 kts 152°
2026-05-05 14:33 45.69765 9.08492 32147 ft 454 kts 151°
2026-05-05 14:33 45.67194 9.11122 32356 ft 454 kts 151°
2026-05-05 14:34 45.64626 9.13746 32566 ft 453 kts 151°
2026-05-05 14:34 45.62062 9.16363 32768 ft 453 kts 151°
2026-05-05 14:34 45.59502 9.18973 32993 ft 452 kts 151°
2026-05-05 14:34 45.56942 9.21574 33216 ft 451 kts 151°
2026-05-05 14:35 45.54388 9.24168 33426 ft 450 kts 151°
2026-05-05 14:35 45.51843 9.26754 33662 ft 449 kts 151°
2026-05-05 14:35 45.49298 9.29340 33859 ft 449 kts 151°
2026-05-05 14:35 45.46761 9.31914 33983 ft 448 kts 151°
2026-05-05 14:36 45.41690 9.37045 34007 ft 447 kts 150°
2026-05-05 14:36 45.36600 9.42167 34081 ft 448 kts 151°
2026-05-05 14:37 45.31512 9.47294 34045 ft 448 kts 151°
2026-05-05 14:37 45.26425 9.52407 34012 ft 448 kts 151°
2026-05-05 14:38 45.21367 9.57471 33984 ft 448 kts 151°
2026-05-05 14:38 45.16279 9.62556 33963 ft 448 kts 151°
2026-05-05 14:39 45.11185 9.67645 33938 ft 448 kts 151°
2026-05-05 14:39 45.06085 9.72728 33942 ft 449 kts 151°
2026-05-05 14:40 45.00970 9.77811 33943 ft 449 kts 151°
2026-05-05 14:40 44.95848 9.82888 33939 ft 450 kts 152°
2026-05-05 14:41 44.90722 9.87962 33947 ft 451 kts 152°
2026-05-05 14:41 44.85574 9.93041 33953 ft 452 kts 152°
2026-05-05 14:42 44.80425 9.98112 33950 ft 452 kts 152°
2026-05-05 14:42 44.75264 10.03190 33958 ft 453 kts 152°
2026-05-05 14:43 44.70088 10.08259 33946 ft 454 kts 152°
2026-05-05 14:43 44.64888 10.13336 33953 ft 456 kts 152°
2026-05-05 14:44 44.59679 10.18421 33965 ft 457 kts 152°
2026-05-05 14:44 44.54456 10.23501 33952 ft 457 kts 152°
2026-05-05 14:45 44.49205 10.28588 33981 ft 460 kts 153°
2026-05-05 14:45 44.43940 10.33697 33989 ft 461 kts 152°
2026-05-05 14:46 44.38674 10.38808 33993 ft 461 kts 152°
2026-05-05 14:46 44.33398 10.43899 34001 ft 461 kts 153°
2026-05-05 14:47 44.28112 10.48990 34019 ft 462 kts 153°
2026-05-05 14:47 44.22858 10.54045 34020 ft 462 kts 153°
2026-05-05 14:48 44.17567 10.59118 34024 ft 462 kts 153°
2026-05-05 14:48 44.12267 10.64185 34027 ft 463 kts 153°
2026-05-05 14:49 44.06940 10.69267 34026 ft 466 kts 153°
2026-05-05 14:49 44.01591 10.74359 34009 ft 466 kts 153°
2026-05-05 14:50 43.96242 10.79445 34011 ft 466 kts 153°
2026-05-05 14:50 43.90886 10.84526 34000 ft 466 kts 153°
2026-05-05 14:51 43.85515 10.89598 33968 ft 467 kts 154°
2026-05-05 14:51 43.80130 10.94655 33980 ft 468 kts 154°
2026-05-05 14:52 43.74714 10.99674 33976 ft 468 kts 154°
2026-05-05 14:52 43.69291 11.04664 33989 ft 469 kts 154°
2026-05-05 14:53 43.63864 11.09649 33970 ft 469 kts 154°
2026-05-05 14:53 43.58466 11.14611 33975 ft 469 kts 154°
2026-05-05 14:54 43.53032 11.19608 33975 ft 470 kts 154°
2026-05-05 14:54 43.47585 11.24602 33980 ft 470 kts 155°
2026-05-05 14:55 43.42148 11.29564 33977 ft 470 kts 155°
2026-05-05 14:55 43.36677 11.34539 33972 ft 471 kts 154°
2026-05-05 14:56 43.31202 11.39509 33981 ft 472 kts 154°
2026-05-05 14:56 43.25720 11.44479 33986 ft 473 kts 154°
2026-05-05 14:57 43.20227 11.49461 33984 ft 473 kts 154°
2026-05-05 14:57 43.14731 11.54443 33992 ft 474 kts 154°
2026-05-05 14:58 43.09226 11.59410 33992 ft 474 kts 154°
2026-05-05 14:58 43.03719 11.64364 34001 ft 474 kts 155°
2026-05-05 14:59 42.98239 11.69280 33986 ft 475 kts 154°
2026-05-05 14:59 42.92698 11.74234 34001 ft 476 kts 154°
2026-05-05 15:00 42.88053 11.78380 34010 ft 477 kts 154°
2026-05-05 15:00 42.81600 11.84142 34015 ft 477 kts 154°
2026-05-05 15:01 42.76049 11.89091 34014 ft 477 kts 154°
2026-05-05 15:01 42.70485 11.94035 34025 ft 477 kts 155°
2026-05-05 15:02 42.64916 11.98966 34032 ft 478 kts 155°
2026-05-05 15:02 42.59345 12.03884 34037 ft 478 kts 155°
2026-05-05 15:03 42.53767 12.08812 34037 ft 479 kts 154°
2026-05-05 15:03 42.48180 12.13742 34042 ft 479 kts 154°
2026-05-05 15:04 42.42597 12.18650 34046 ft 479 kts 154°
2026-05-05 15:04 42.37041 12.23517 34052 ft 479 kts 154°
2026-05-05 15:05 42.28646 12.30838 34043 ft 479 kts 154°
2026-05-05 15:06 42.23051 12.35713 34042 ft 479 kts 154°
2026-05-05 15:06 42.18361 12.39796 34061 ft 479 kts 154°
2026-05-05 15:07 42.12795 12.44636 34051 ft 480 kts 154°
2026-05-05 15:07 42.07179 12.49505 34064 ft 480 kts 154°
2026-05-05 15:08 42.01552 12.54363 34072 ft 480 kts 154°
2026-05-05 15:08 41.95929 12.59226 34077 ft 481 kts 154°
2026-05-05 15:09 41.90301 12.64067 34062 ft 480 kts 154°
2026-05-05 15:09 41.84671 12.68890 34067 ft 480 kts 154°
2026-05-05 15:10 41.79039 12.73712 34070 ft 480 kts 154°
2026-05-05 15:10 41.73408 12.78539 34050 ft 480 kts 154°
2026-05-05 15:11 41.67773 12.83356 34041 ft 480 kts 153°
2026-05-05 15:11 41.62140 12.88157 34063 ft 480 kts 153°
2026-05-05 15:12 41.56501 12.92951 34073 ft 480 kts 154°
2026-05-05 15:12 41.50865 12.97724 34078 ft 480 kts 154°
2026-05-05 15:13 41.45225 13.02495 34062 ft 480 kts 153°
2026-05-05 15:13 41.39582 13.07267 34068 ft 480 kts 153°
2026-05-05 15:14 41.33944 13.12029 34069 ft 480 kts 153°
2026-05-05 15:14 41.28293 13.16775 34068 ft 480 kts 153°
2026-05-05 15:15 41.22644 13.21510 34068 ft 480 kts 153°
2026-05-05 15:15 41.16992 13.26243 34067 ft 481 kts 153°
2026-05-05 15:16 41.11326 13.30974 34067 ft 481 kts 153°
2026-05-05 15:16 41.05667 13.35696 34074 ft 481 kts 153°
2026-05-05 15:17 41.00036 13.40389 34082 ft 481 kts 153°
2026-05-05 15:17 40.94335 13.45142 34076 ft 481 kts 153°
2026-05-05 15:18 40.88711 13.49806 34075 ft 481 kts 153°
2026-05-05 15:18 40.83037 13.54489 34083 ft 481 kts 153°
2026-05-05 15:19 40.77365 13.59165 34090 ft 481 kts 153°
2026-05-05 15:19 40.71695 13.63840 34082 ft 480 kts 153°
2026-05-05 15:20 40.66031 13.68512 34092 ft 480 kts 153°
2026-05-05 15:20 40.60370 13.73164 34091 ft 479 kts 153°
2026-05-05 15:21 40.54707 13.77793 34089 ft 479 kts 153°
2026-05-05 15:21 40.49043 13.82418 34083 ft 479 kts 153°
2026-05-05 15:22 40.43394 13.87030 34099 ft 478 kts 153°
2026-05-05 15:22 40.37741 13.91639 34086 ft 478 kts 154°
2026-05-05 15:23 40.32088 13.96232 34096 ft 478 kts 154°
2026-05-05 15:23 40.26429 14.00804 34085 ft 477 kts 154°
2026-05-05 15:24 40.20735 14.05248 34085 ft 476 kts 155°
2026-05-05 15:24 40.15016 14.09628 34086 ft 476 kts 155°
2026-05-05 15:25 40.09306 14.14009 34088 ft 476 kts 155°
2026-05-05 15:25 40.03598 14.18409 34087 ft 476 kts 154°
2026-05-05 15:26 39.97894 14.22809 34065 ft 477 kts 154°
2026-05-05 15:26 39.92169 14.27210 34055 ft 478 kts 154°
2026-05-05 15:27 39.86435 14.31610 34058 ft 479 kts 154°
2026-05-05 15:27 39.80722 14.35976 34065 ft 479 kts 154°
2026-05-05 15:28 39.74973 14.40366 34064 ft 479 kts 154°
2026-05-05 15:28 39.69217 14.44755 34076 ft 480 kts 155°
2026-05-05 15:29 39.63466 14.49129 34077 ft 480 kts 154°
2026-05-05 15:29 39.57702 14.53504 34083 ft 480 kts 155°
2026-05-05 15:30 39.51931 14.57871 34061 ft 480 kts 154°
2026-05-05 15:30 39.46150 14.62234 34067 ft 481 kts 154°
2026-05-05 15:31 39.40364 14.66605 34066 ft 482 kts 154°
2026-05-05 15:31 39.34580 14.70983 34067 ft 482 kts 154°
2026-05-05 15:32 39.28780 14.75342 34062 ft 482 kts 154°
2026-05-05 15:32 39.22974 14.79687 34065 ft 483 kts 154°
2026-05-05 15:33 39.17162 14.84039 34068 ft 483 kts 154°
2026-05-05 15:33 39.11348 14.88389 34070 ft 483 kts 154°
2026-05-05 15:34 39.05525 14.92728 34057 ft 484 kts 154°
2026-05-05 15:34 38.99698 14.97078 34057 ft 485 kts 154°
2026-05-05 15:35 38.93844 15.01435 34056 ft 486 kts 154°
2026-05-05 15:35 38.87984 15.05782 34060 ft 487 kts 154°
2026-05-05 15:36 38.82110 15.10117 34067 ft 488 kts 154°
2026-05-05 15:36 38.76225 15.14467 34053 ft 488 kts 154°
2026-05-05 15:37 38.70349 15.18808 34058 ft 488 kts 154°
2026-05-05 15:37 38.64468 15.23136 34072 ft 488 kts 154°
2026-05-05 15:38 38.58582 15.27459 34076 ft 488 kts 154°
2026-05-05 15:38 38.52699 15.31773 34071 ft 488 kts 154°
2026-05-05 15:39 38.46793 15.36087 34077 ft 488 kts 154°
2026-05-05 15:39 38.40940 15.40362 33778 ft 488 kts 154°
2026-05-05 15:39 38.38008 15.42503 32680 ft 483 kts 154°
2026-05-05 15:40 38.35113 15.44615 31711 ft 475 kts 154°
2026-05-05 15:40 38.32245 15.46702 30666 ft 478 kts 154°
2026-05-05 15:40 38.29335 15.48813 29477 ft 485 kts 154°
2026-05-05 15:40 38.26392 15.50951 28314 ft 488 kts 154°
2026-05-05 15:41 38.23432 15.53100 27076 ft 492 kts 153°
2026-05-05 15:41 38.20454 15.55261 26156 ft 489 kts 153°
2026-05-05 15:41 38.17521 15.57374 25396 ft 482 kts 155°
2026-05-05 15:41 38.14447 15.58923 24584 ft 471 kts 169°
2026-05-05 15:42 38.11256 15.59499 23807 ft 459 kts 182°
2026-05-05 15:42 38.08124 15.59110 22991 ft 447 kts 196°
2026-05-05 15:42 38.05226 15.57859 22338 ft 434 kts 208°
2026-05-05 15:42 38.02668 15.55921 21683 ft 424 kts 220°
2026-05-05 15:43 38.00537 15.53395 21052 ft 415 kts 232°
2026-05-05 15:43 37.98729 15.50574 20442 ft 410 kts 233°
2026-05-05 15:43 37.96945 15.47781 19847 ft 406 kts 233°
2026-05-05 15:43 37.95175 15.45020 19277 ft 402 kts 233°
2026-05-05 15:44 37.93417 15.42287 18720 ft 398 kts 233°
2026-05-05 15:44 37.91671 15.39581 18138 ft 395 kts 233°
2026-05-05 15:44 37.89938 15.36901 17608 ft 390 kts 233°
2026-05-05 15:44 37.88230 15.34263 17102 ft 385 kts 233°
2026-05-05 15:45 37.86540 15.31650 16623 ft 380 kts 233°
2026-05-05 15:45 37.84879 15.29081 16145 ft 375 kts 233°
2026-05-05 15:45 37.83239 15.26540 15663 ft 371 kts 233°
2026-05-05 15:45 37.81606 15.24007 15122 ft 375 kts 233°
2026-05-05 15:46 37.79974 15.21477 14523 ft 376 kts 233°
2026-05-05 15:46 37.78302 15.18893 13937 ft 374 kts 232°
2026-05-05 15:46 37.76683 15.16397 13505 ft 369 kts 232°
2026-05-05 15:46 37.75068 15.13908 12907 ft 365 kts 232°
2026-05-05 15:47 37.73462 15.11432 12328 ft 363 kts 232°
2026-05-05 15:47 37.72383 15.09770 11929 ft 360 kts 232°
2026-05-05 15:47 37.70286 15.06542 11128 ft 357 kts 232°
2026-05-05 15:47 37.68733 15.04158 10918 ft 344 kts 232°
2026-05-05 15:48 37.67243 15.01877 10792 ft 330 kts 232°
2026-05-05 15:48 37.65817 14.99691 10656 ft 316 kts 232°
2026-05-05 15:48 37.64446 14.97589 10532 ft 304 kts 232°
2026-05-05 15:48 37.63130 14.95572 10416 ft 293 kts 232°
2026-05-05 15:49 37.61857 14.93621 10241 ft 284 kts 232°
2026-05-05 15:49 37.60612 14.91713 10104 ft 280 kts 231°
2026-05-05 15:49 37.59374 14.89812 10003 ft 280 kts 231°
2026-05-05 15:49 37.58132 14.87911 9670 ft 282 kts 231°
2026-05-05 15:50 37.56885 14.86004 9262 ft 281 kts 231°
2026-05-05 15:50 37.55643 14.84108 8879 ft 279 kts 231°
2026-05-05 15:50 37.54410 14.82226 8503 ft 278 kts 231°
2026-05-05 15:50 37.53183 14.80351 8126 ft 276 kts 231°
2026-05-05 15:51 37.51962 14.78490 7753 ft 275 kts 231°
2026-05-05 15:51 37.50748 14.76643 7380 ft 273 kts 230°
2026-05-05 15:51 37.49555 14.74827 7016 ft 272 kts 230°
2026-05-05 15:51 37.48304 14.73017 6638 ft 270 kts 221°
2026-05-05 15:52 37.46671 14.72035 6275 ft 263 kts 185°
2026-05-05 15:52 37.44953 14.72409 5854 ft 248 kts 149°
2026-05-05 15:52 37.43805 14.73948 5243 ft 242 kts 110°
2026-05-05 15:52 37.43651 14.76006 4778 ft 237 kts 83°
2026-05-05 15:53 37.43894 14.78037 4278 ft 234 kts 80°
2026-05-05 15:53 37.44171 14.80042 3789 ft 232 kts 81°
2026-05-05 15:53 37.44452 14.82004 3542 ft 220 kts 80°
2026-05-05 15:53 37.44707 14.83845 3338 ft 209 kts 85°
2026-05-05 15:54 37.44884 14.85636 3097 ft 205 kts 85°
2026-05-05 15:54 37.45039 14.87399 2858 ft 201 kts 86°
2026-05-05 15:54 37.45190 14.89147 2552 ft 199 kts 86°
2026-05-05 15:54 37.45287 14.90285 2378 ft 197 kts 85°
2026-05-05 15:55 37.45429 14.91935 2127 ft 181 kts 86°
2026-05-05 15:55 37.45560 14.93456 1903 ft 169 kts 86°
2026-05-05 15:55 37.45681 14.94879 1678 ft 157 kts 84°
2026-05-05 15:55 37.45794 14.96208 1462 ft 150 kts 84°
2026-05-05 15:56 37.45903 14.97491 1265 ft 147 kts 86°
2026-05-05 15:56 37.46011 14.98766 1108 ft 148 kts 83°
2026-05-05 15:56 37.46119 15.00036 911 ft 145 kts 81°
2026-05-05 15:56 37.46226 15.01298 759 ft 146 kts 84°
2026-05-05 15:57 37.46334 15.02558 570 ft 141 kts 80°
2026-05-05 15:57 37.46454 15.03788 307 ft 142 kts 84°
2026-05-05 15:57 37.46541 15.05030 125 ft 141 kts 84°
2026-05-05 15:57 37.46644 15.06219 39 ft 124 kts 84°
2026-05-05 15:58 37.46709 15.06992 35 ft 46 kts 84°
2026-05-05 15:58 37.46730 15.07253 36 ft 24 kts 84°
2026-05-05 15:58 37.46748 15.07458 36 ft 23 kts 83°
2026-05-05 15:58 37.46795 15.07650 35 ft 23 kts 69°
2026-05-05 15:59 37.46880 15.07806 33 ft 19 kts 30°
2026-05-05 15:59 37.46936 15.07771 32 ft 5 kts 277°
2026-05-05 15:59 37.46936 15.07729 32 ft 4 kts 267°
2026-05-05 15:59 37.46934 15.07697 32 ft 3 kts 266°
2026-05-05 16:00 37.46930 15.07642 32 ft 13 kts 262°
2026-05-05 16:00 37.46916 15.07489 32 ft 21 kts 264°
2026-05-05 16:00 37.46898 15.07276 32 ft 28 kts 264°
2026-05-05 16:00 37.46875 15.07008 32 ft 34 kts 264°
2026-05-05 16:01 37.46860 15.06776 32 ft 11 kts 291°
2026-05-05 16:01 37.46920 15.06763 32 ft 5 kts 356°
2026-05-05 16:01 37.46928 15.06762 32 ft 1 kts 356°
2026-05-05 16:01 37.46933 15.06762 32 ft 1 kts 355°